Regional Weather Roundup
Issued by NWS Goodland, KS

Home | Current Version | Previous Version | Text Only | Print | Product List | Glossary On
Versions: 1 2 3 4 5 6 7 8 9 10 11 12 13 14 15 16 17 18 19 20 21 22 23 24 25 26 27 28 29 30 31 32 33 34 35 36 37 38 39 40 41 42 43 44 45 46 47 48 49 50
000
ASUS43 KGLD 051508
RWRGLD

GOODLAND FORECAST AREA HOURLY WEATHER ROUNDUP
NATIONAL WEATHER SERVICE GOODLAND KS
900 AM MDT THU MAY 05 2016

...OFFICIAL OBSERVATIONS...

CITY           SKY/WX    TMP DP  RH WIND       PRES   REMARKS
GOODLAND KS    SUNNY     67  44  43 S17       30.11F
HILL CITY KS   SUNNY     63  47  55 CALM      30.13F
IMPERIAL NEB   SUNNY     66  47  50 S8        30.10F
MCCOOK NEB     SUNNY     61  48  62 CALM      30.11F
AKRON CO       SUNNY     66  42  41 SW13      30.12S
BURLINGTON CO  SUNNY     66  43  43 S14       30.14S
LIMON CO       SUNNY     60  42  51 CALM      30.18S
$$

...UNOFFICIAL OBSERVATIONS...

CITY           SKY/WX    TMP DP  RH WIND       PRES   REMARKS
COLBY KS       SUNNY     66  54  63 S10       30.14S
LENORA KS        N/A     67  32  27 MISG        N/A
NORTON KS      SUNNY     68  45  42 S6        30.11F
SHARON SPRINGS   N/A     68  46  44 S15G24      N/A
TRIBUNE KS     SUNNY     66  45  45 SE12      30.15
KIT CARSON CO    N/A     62  42  48 MISG        N/A
YUMA CO          N/A     69  43  39 SW12        N/A
$$




USA.gov is the U.S. government's official web portal to all federal, state and local government web resources and services.